Regional Weather Roundup
Issued by NWS

Home | Current Version | Previous Version | Text Only | Print | Product List | Glossary Off
Versions: 1 2 3 4 5 6 7 8 9 10 11 12 13 14 15 16 17 18 19 20 21 22 23 24 25 26 27 28 29 30 31 32 33 34 35 36 37 38 39 40 41 42 43 44 45 46 47 48 49 50

000
ASUS43 KMKX 242321
RWRWI

WISCONSIN REGIONAL WEATHER ROUNDUP
NATIONAL WEATHER SERVICE MILWAUKEE/SULLIVAN WI
600 PM CDT SUN SEP 24 2017

NOTE: "FAIR" INDICATES FEW OR NO CLOUDS BELOW 12,000 FEET WITH NO
SIGNIFICANT WEATHER AND/OR OBSTRUCTIONS TO VISIBILITY.

WIZ001-002-006>008-014>016-023>028-250000-
NORTHWEST WISCONSIN

CITY           SKY/WX    TMP DP  RH WIND       PRES   REMARKS
SUPERIOR ARPT  PTCLDY    64  63  96 N3        29.85R
ASHLAND        CLEAR     82  62  50 S6        29.87F HX  83
HAYWARD        CLEAR     81  64  56 S5        29.90S HX  82
SIREN          CLOUDY    83  64  51 S10       29.86S HX  84
CUMBERLAND     CLEAR     79  61  53 S8        29.89F HX  80
RICE LAKE      CLEAR     83  62  48 SE12      29.90F HX  84
CHETEK         CLEAR     82  66  57 SE8       29.90F HX  85
LADYSMITH      CLEAR     82  62  49 SE6       29.94F HX  83
EAU CLAIRE     CLEAR     86  61  42 SE12      29.90S HX  86
MENOMONIE      CLEAR     84  64  51 SE8       29.89F HX  85
NEW RICHMOND   SUNNY     84  61  44 S7        29.87S HX  84
OSCEOLA        SUNNY     85  61  43 S12       29.88S HX  85
$$

WIZ003>005-009-010-017-018-250000-
NORTH CENTRAL WISCONSIN

CITY           SKY/WX    TMP DP  RH WIND       PRES   REMARKS
MANITOWISH WTR NOT AVBL
ARBOR VITAE    CLEAR     81  63  53 S7        29.98S HX  82
WOODRUFF       CLEAR     81  63  53 S7        29.98S HX  82
RHINELANDER    CLEAR     82  59  45 S8        30.00S HX  82
EAGLE RIVER    CLEAR     82  56  42 S5        29.98S HX  81
LAND O LAKES   CLEAR     82  58  42 S6        30.00S HX  82
PHILLIPS       PTCLDY    80  60  50 S5        29.95F HX  81
TOMAHAWK       CLEAR     80  57  45 CALM      29.98S HX  80
MEDFORD        CLEAR     80  61  52 S7        29.97S HX  81
MERRILL        CLEAR     84  58  41 S8        29.98S HX  84
$$

WIZ029-030-035-036-043>047-250000-
CENTRAL WISCONSIN

CITY           SKY/WX    TMP DP  RH WIND       PRES   REMARKS
WAUSAU         CLEAR     83  59  44 S9        29.96F HX  83
MOSINEE        PTCLDY    81  61  50 S8        29.99S HX  81
MARSHFIELD     CLEAR     82  59  45 S8        29.96F HX  82
STEVENS POINT  CLEAR     82  58  43 S6        29.99S HX  82
WAUPACA        CLEAR     85  63  46 SE5       29.98F HX  86
WAUTOMA        CLEAR     85  61  44 S5        29.98S HX  85
WISC RAPIDS    CLEAR     85  60  42 S7        29.98S HX  85
CAMP DOUGLAS   CLEAR     85  62  45 S6        29.96S HX  86
$$

WIZ011>013-019>022-031-037>040-048>050-250000-
NORTHEAST WISCONSIN

CITY           SKY/WX    TMP DP  RH WIND       PRES   REMARKS
ANTIGO         CLEAR     80  63  55 S8        30.01S HX  81
SHAWANO        CLEAR     86  62  44 S3        29.98S HX  87
OCONTO         CLEAR     81  67  62 S6        29.99S HX  83
STURGEON BAY   CLEAR     77  64  64 S9        30.02R
GREEN BAY      CLEAR     84  69  60 SE10      29.99S HX  88
MANITOWOC      CLEAR     76  66  71 S9        30.02S
APPLETON       PTCLDY    84  57  39 SW8       29.99S HX  83
CLINTONVILLE   CLEAR     84  59  42 S6        29.98F HX  84
OSHKOSH        CLEAR     83  65  54 S8        29.99S HX  85
$$

WIZ032>034-041-042-053>061-250000-
SOUTHWEST WISCONSIN

CITY           SKY/WX    TMP DP  RH WIND       PRES   REMARKS
LA CROSSE      CLEAR     89  62  40 SE12      29.91S HX  89
SPARTA         CLEAR     85  60  42 S7        29.95S HX  85
VIROQUA        CLEAR     83  63  49 SE9       29.97S HX  84
BOSCOBEL       CLEAR     88  62  41 S5        29.95R HX  88
PRAIRIE DU CHI CLEAR     87  59  38 SE7       29.93S HX  86
PLATTEVILLE    CLEAR     85  61  44 S9        29.99S HX  85
$$

WIZ056-057-062-063-064-067-068-250000-
SOUTH CENTRAL WISCONSIN

CITY           SKY/WX    TMP DP  RH WIND       PRES   REMARKS
REEDSBURG      CLEAR     85  60  43 S6        29.97S HX  84
BARABOO/DELLS  CLEAR     84  56  37 SW5       29.98S HX  83
LONE ROCK      CLEAR     86  60  41 S10       29.96S HX  86
MINERAL POINT  CLEAR     86  59  39 S7        30.00S HX  85
MADISON        PTCLDY    86  58  38 S9        29.98S HX  85
MIDDLETON      CLEAR     87  55  33 S9        30.00S HX  85
WATERTOWN      CLEAR     85  60  42 S7        29.99S HX  85
MONROE         CLEAR     84  57  39 S6        30.00S HX  83
JANESVILLE     PTCLDY    90  55  31 S10       29.99S HX  88
$$

WIZ051-052-058>065-066-070>072-250000-
SOUTHEAST WISCONSIN

CITY           SKY/WX    TMP DP  RH WIND       PRES   REMARKS
MILWAUKEE      PTCLDY    83  62  49 SE10      30.01S HX  84
WAUKESHA       PTCLDY    82  61  47 SE12      30.02S HX  83
MILWAUKEE/TIMM CLEAR     84  54  34 SE10      30.02R HX  83
RACINE         CLEAR     82  60  47 SE7       30.03F HX  82
BURLINGTON     CLEAR     83  62  48 SE8       30.01S HX  84
KENOSHA        CLEAR     83  59  44 SE9       30.02S HX  83
FOND DU LAC    CLEAR     83  62  49 S6        30.00S HX  84
SHEBOYGAN      CLEAR     79  66  64 S6        30.01F HX  81
WEST BEND        N/A     81  59  47 SE8       30.01S HX  81
JUNEAU         CLEAR     83  62  49 S6        30.01F HX  83
$$

LSZ147-162-250000-
LAKE SUPERIOR

STATION/POSITION TIME  TEMP    WIND        PRES    WAVE
                       AIR SEA DIR/SP/G            HT/PER
                 (UTC) (F)     (DEG/KT/KT) (MB)    (FT/S)
W MID LAKE BUOY  2250   65 58  110/  6/  6 1011.2F   0
DEVILS ISLAND    2300   69     110/ 10/ 11 1010.6F
SAXON HARBOR     2230   85     200/  5/ 13 1011.2F
$$

LMZ867-665-643>646-250000-
LAKE MICHIGAN

STATION/POSITION TIME  TEMP    WIND        PRES    WAVE
                       AIR SEA DIR/SP/G            HT/PER
                 (UTC) (F)     (DEG/KT/KT) (MB)    (FT/S)
S GREEN BAY BUOY 2300   78 72  150/ 10/ 12 1015.3R
N MID LAKE BUOY  2250   71 67  200/ 10/ 12 1016.6F   1/ 3
NORTHPORT PIER   2240   76     160/  5/  9 1015.9S
KEWAUNEE LAKESHO 2254   67     180/  8/  9 1015.7F
SHEBOYGAN LAKESH 2300   74     180/ 11/ 12 1015.7F
PORT WASHINGTON  2230   78     190/  6/  9 1016.9S
ATWATER BUOY     2209   70 63  180/  8/ 10 1016.6S
MILWAUKEE LAKESH 2300   71     160/ 11/ 12   N/A
S MID LAKE BUOY  2250   78 72  160/  2/  2 1016.6F   0
KENOSHA   LAKESH 2300   78     170/  4/  5 1015.9
$$

TC  - TEMPERATURE IN CELSIUS
VSB - VISIBILITY IN STATUTE MILES
WCI - WIND CHILL INDEX
HX  - HEAT INDEX




USA.gov is the U.S. government's official web portal to all federal, state and local government web resources and services.